Location: Chrząstowo
(52.0654°N, 17.1290°E)
Time: 08:09:20
(UTC+01:00)

Envisat - Pass Details

Date: 16 December 2019
Orbit: 764 x 766 km, 98.1° (Epoch: 20 January)

Event Time Altitude Azimuth Distance (km) Brightness Sun altitude
Rises 16:35:37 0° 135° (SE) 3,226 6.1 -8.0°
Reaches altitude 10° 16:38:04 10° 127° (SE) 2,304 5.2 -8.3°
Maximum altitude 16:42:38 35° 63° (ENE) 1,236 3.6 -9.0°
Drops below altitude 10° 16:47:12 10° 360° (N) 2,317 5.2 -9.6°
Sets 16:49:41 0° 351° (N) 3,248 6.1 -9.9°
